Location: Chisholm
(54.9102°N, 114.1701°W)
Time: 03:21:45
(UTC+00:00)

ISS - Pass Details

Date: 05 December 2021
Orbit: 413 x 422 km, 51.6° (Epoch: 23 January)

Event Time Altitude Azimuth Distance (km) Brightness Sun altitude
Rises 23:46:38 0° 271° (W) 2,387 1.1 -5.0°
Reaches altitude 10° 23:48:49 10° 264° (W) 1,519 0.3 -5.2°
Maximum altitude 23:52:02 41° 193° (SSW) 635 -2.4 -5.6°
Drops below altitude 10° 23:55:15 10° 122° (ESE) 1,511 -1.2 -6.0°
Enters shadow 23:58:31 -4° 113° (ESE) 2,821 0.1 -6.4°
